User: anonymous   Login
Location: Unspecified
(51.2667°N, 0.0000°E)
Time: 06:34:10
(UTC+00:00)
Language:

PicSat - Orbit

View from above orbital plane
View from above orbital plane
View from above satellite
View from above satellite

Ground track
Ground track

The orbit data is extracted from the following two-line orbital elements,

1 43131U 18004W   19236.31343489  .00000898  00000-0  39739-4 0  9991
2 43131  97.4847 304.2797 0010044  29.2251 330.9546 15.24261229 89668
Epoch (UTC): 24 August 2019 07:31:20
Eccentricity: 0.0010044
inclination: 97.4847°
perigee height: 486 km
apogee height: 500 km
right ascension of ascending node: 304.2797°
argument of perigee: 29.2251°
revolutions per day: 15.24261229
mean anomaly at epoch: 330.9546°
orbit number at epoch: 8966

The dashed part of the orbit path shows where the satellite is in the earth's shadow,  

DLR